Home   Weather   Florianópolis   Past weeks

Flag for Brazil Past Weather in Florianópolis, Santa Catarina, Brazil — Yesterday and Last 2 Weeks

Now
63 °F

Partly sunny.


Feels Like: 63 °F
Forecast: N/A
Wind: 6 mph from Southwest

Location: Florianopolis Aeroporto

Current Time: Sep 30, 2016 at 7:08:45 PM

Latest Report: Sep 30, 2016 at 6:00 PM


Visibility: N/A

Pressure: 30.12 "Hg

Humidity: 77%

Dew Point: 55 °F

Location of FlorianópolisLocation

Past Weather in Florianópolis — Graph

°F

Florianópolis Temperature Yesterday

Maximum temperature yesterday: 73 °F (at 12:00 PM)
Minimum temperature yesterday: 55 °F (at 5:00 AM)
Average temperature yesterday: 65 °F

High & Low Weather Summary for the Past Weeks

 TemperatureHumidityPressure
High79 °F (Sep 23, 3:00 PM)100% (Sep 18, 7:00 PM)30.27 "Hg (Sep 18, 7:00 PM)
Low50 °F (Sep 20, 5:00 AM)44% (Sep 20, 12:00 PM)29.92 "Hg (Sep 18, 4:00 AM)
Average64 °F77%30.10 "Hg
* Reported Sep 15 6:00 PM — Sep 30 6:00 PM, Florianópolis, Weather by CustomWeather, © 2016

Note: Actual official high and low records may vary slightly from our data, if they occured in-between our weather recording intervals... More about our weather records

Advertising

Florianópolis Weather History for the Previous 24 Hours

Scroll right to see more
 ConditionsComfort  
Time TempWeatherWind HumidityBarometerVisibility
6:00 PM
Fri, Sep 30
63 °FPartly sunny.6 mph77%30.12 "HgN/A
5:00 PM64 °FPartly sunny.7 mph68%30.12 "HgN/A
4:00 PM66 °FPartly sunny.10 mph64%30.09 "HgN/A
3:00 PM66 °FPartly sunny.10 mph60%30.09 "HgN/A
2:00 PM68 °FPartly sunny.13 mph56%30.09 "HgN/A
1:00 PM68 °FPartly sunny.9 mph53%30.12 "HgN/A
12:00 PM66 °FPartly sunny.9 mph52%30.12 "HgN/A
11:00 AM68 °FPartly sunny.10 mph49%30.15 "HgN/A
10:00 AM66 °FPartly sunny.9 mph68%30.15 "HgN/A
9:00 AM64 °FPartly sunny.9 mph56%30.15 "HgN/A
8:00 AM63 °FPartly sunny.7 mph59%30.12 "HgN/A
7:00 AM61 °FSunny.6 mph63%30.12 "Hg10 mi
6:00 AM61 °FPartly sunny.6 mph68%30.09 "HgN/A
5:00 AM61 °FPassing clouds.8 mph68%30.09 "HgN/A
4:00 AM61 °FPassing clouds.7 mph68%30.07 "HgN/A
3:00 AM61 °FClear.7 mph68%30.09 "Hg10 mi
2:00 AM61 °FClear.7 mph68%30.09 "Hg10 mi
1:00 AM61 °FClear.7 mph68%30.09 "Hg10 mi
12:00 AM61 °FClear.12 mph68%30.12 "Hg10 mi
11:00 PM
Thu, Sep 29
63 °FPassing clouds.10 mph68%30.12 "HgN/A
10:00 PM63 °FPassing clouds.12 mph73%30.15 "HgN/A
9:00 PM63 °FPassing clouds.10 mph73%30.12 "HgN/A
8:00 PM63 °FPassing clouds.13 mph73%30.12 "HgN/A
7:00 PM64 °FPassing clouds.15 mph68%30.09 "HgN/A
Weather by CustomWeather, © 2016

See weather overviewHow to use our weather pages